Regional Weather Roundup
Issued by NWS Bismarck, ND

Home | Current Version | Previous Version | Text Only | Print | Product List | Glossary On
Versions: 1 2 3 4 5 6 7 8 9 10 11 12 13 14 15 16 17 18 19 20 21 22 23 24 25 26 27 28 29 30 31 32 33 34 35 36 37 38 39 40 41 42 43 44 45 46 47 48 49 50
000
ASUS43 KBIS 222210
RWRBIS

NWR BROADCAST TEXT
NATIONAL WEATHER SERVICE BISMARCK ND
400 PM CST MON DEC 22 2014

NOTE: "FAIR" INDICATES FEW OR NO CLOUDS BELOW 12,000 FEET WITH NO
SIGNIFICANT WEATHER AND/OR OBSTRUCTIONS TO VISIBILITY.


CITY           SKY/WX    TMP DP  RH WIND       PRES   REMARKS
WILLISTON      CLOUDY    27  22  81 NW14      29.70R WCI  16
MINOT          CLOUDY    28  25  88 NW14      29.64R WCI  17
MINOT AFB      CLOUDY    28  28 100 N12       29.65R WCI  18
BISMARCK       CLOUDY    31  31 100 N13       29.56R FOG
DICKINSON      LGT SNOW  26  22  84 NW18      29.60R FOG     WCI  13
GARRISON         N/A     28  27  96 N17       29.61R WCI  16
HETTINGER ARPT LGT SNOW  25  21  85 NW26G33   29.59R VSB 1   WCI   9
JAMESTOWN      MIX PCPN  34  32  92 NE12      29.50R
BEACH          LGT SNOW  23  23 100 NW22G32   29.69R VSB 1   WCI   8
CARRINGTON     LGT SNOW  32  32 100 MISG      29.55R VSB 3/4
CROSBY         CLOUDY    27  27 100 N15       29.71R FOG     WCI  15
HARVEY         MIX PCPN  32  32 100 N13       29.58R
HAZEN          CLOUDY    28  28 100 N14G20    29.63R WCI  17
LINTON         LGT SNOW  32  32 100 N13G18    29.51R
MANDAN         CLOUDY    30  30 100 N16G23    29.57R FOG     WCI  19
OAKES          MIX PCPN  37  37 100 E14       29.46R
RUGBY          LGT SNOW  32  32 100 N10       29.61R
STANLEY        CLOUDY    27  27 100 N14       29.65R FOG     WCI  15
TIOGA          CLOUDY    27  27 100 N14G22    29.69R FOG     WCI  15
WATFORD CITY   CLOUDY    27  25  93 NW12      29.67R WCI  16
$$

CITY           SKY/WX    TMP DP  RH WIND       PRES   REMARKS
GRAND FORKS    CLOUDY    37  36  96 E7        29.58R
GRAND FORKS AF LGT RAIN  36  36 100 E6        29.59R FOG
DEVILS LAKE    CLOUDY    34  32  93 NE12      29.57R
FARGO          CLOUDY    40  37  89 E10       29.54R
CANDO          CLOUDY    32  32 100 NE10      29.61R FOG
CAVALIER       FOG       34  34 100 NE7       29.63  VSB 1
GWINNER        CLOUDY    37  37 100 E13       29.48R
LANGDON        FOG       32  32 100 NE12      29.61R VSB 1/2
WALHALLA         N/A     32  32 100 N8        29.65R FOG
$$

CITY           SKY/WX    TMP DP  RH WIND       PRES   REMARKS
ABERDEEN       LGT RAIN  38  37  97 NE6       29.43R FOG
MOBRIDGE       HVY SNOW  31  29  92 N16       29.47R VSB 1/4 WCI  20
BUFFALO          N/A     28  23  81 NW28G36   29.54R WCI  13
RAPID CITY     CLOUDY    38  23  55 NW43G54   29.52R
GLASGOW        CLOUDY    30  23  75 N20       29.79R WCI  17
SIDNEY         CLOUDY    27  21  80 NW17      29.74R WCI  14
WOLF POINT     LGT SNOW  27  21  78 NW12      29.80R WCI  17
GLENDIVE       CLOUDY    27  19  74 NW22      29.73R WCI  12
MILES CITY     CLOUDY    35  27  72 NW23G30   29.75R
BAKER          LGT SNOW  27  24  89 NW21G33   29.67R FOG     WCI  13
$$

CITY           SKY/WX    TMP DP  RH WIND       PRES   REMARKS
BILLINGS       CLOUDY    40  21  46 NW17G29   29.86R
GREAT FALLS    CLOUDY    39  22  50 NW14      29.95R
ESTEVAN        FOG       27  27 100 N13       29.70R VSB 1   WCI  16
$$



USA.gov is the U.S. government's official web portal to all federal, state and local government web resources and services.